FENGYUN 1C DEB, 31362

Orbit data source: Space-Track

FENGYUN 1C DEB, 31362 is space debris in SSO originally from a launch on Mon, 10 May 1999 UTC launched from the Taiyaun Space Center, China (TSC). Fengyun 1C debris stems from the Chinese weather satellite Fengyun-1C, which was intentionally destroyed by a Chinese anti-satellite missile in 2007. This event dramatically increased the amount of space debris, with thousands of trackable fragments posing hazards to satellites and human spaceflight. The Fengyun 1C debris cloud has become a focal point in discussions about space sustainability and the need for international regulations to prevent the creation of new debris.

Loading next visibility...
Identifier
31362, 1999-025BRS
Orbit
SSO
Country
Flag of CNCN / PRC
Related business
Manufacturer
Unknown
Mission
Spacecraft
Bus & Motor
Unknown
Mass
Unknown
Launch date (UTC)
1999-05-10 (27 years ago)
Launch vehicle
Unknown
Launch site
Taiyaun Space Center, China (TSC)
Object type
Payload
Rocket body
Debris
Shape & HBR
Unknown shape, 0.1 m
Radar Cross Section
Small (<0.1 m²)

Expand to show TLE details & history
Last TLE update: 3 days ago

TLE from 3 days ago
0 FENGYUN 1C DEB
1 31362U 99025BRS 26132.20011011  .00000154  00000-0  97182-4 0  9991
2 31362  98.6616 127.6889 0018765  27.4367 332.7795 14.17488355987073
Epoch: 2026-05-12T04:48Z
TLE epoch observation values (Epoch: 2026-05-12T04:48:09.513Z)
Latitude
-0.00003°
Longitude
-174.32864°
Altitude
824.74 km
Speed
7.447 km/s
True Right ascension
08h 30m 45s
True Declination
0° 00' 00"
Sunlit
Object was in daylight at epoch
Visualization orbit readout
Latitude
Unknown
Longitude
Unknown
Altitude
Unknown
Speed
Unknown
Apparent Right ascension
Unknown
Apparent Declination
Unknown
Sunlit
N/A
Visualization observer readout
Local Sidereal Time
18:53:36
Azimuth
Unknown
Elevation
Unknown
Doppler factor
Unknown
Orbital elements
Apogee altitude
844.547 km
Perigee altitude
817.491 km
Semi-major axis
7,209.156 km
Eccentricity
0.00188
Inclination
98.6616°
RAAN
127.6889°
Arg. of periapsis
27.4367°
True anomaly
332.68094°
Mean anomaly
332.7795°
Eccentric anomaly
332.73024°
Mean motion
3.54582 °/min
Orbital period
101.53 mins
BSTAR
0.000097182
Loading maneuver chart data...
Computing Atmospheric mass density...
Loading historical data...
Loading historical data...
Loading historical data...
Loading historical data...
Loading historical data...
Loading historical data...
Loading historical data...

Documentation

Showing up to 5 results
|